Вернуться в каталог

ONEWEB-0261

АктивенСвязьPO
NORAD 48979·PAYLOAD·🇬🇧 United Kingdom

Запущен Jul 1, 2021 с Vostochny Cosmodrome

Loading…

Ближайшие Пролёты (ближайшие 24 часа)

TLE

СвежийSource: CelesTrak SupGP

Эпоха: Sep 14, 2026, 10:49 UTC

1 48979C 21060N   26257.45084907 -.00001937  00000+0 -50729-2 0  2578
2 48979  87.9135 211.0567 0002242  73.4391  17.7198 13.16594551    15

Отслеживайте ONEWEB-0261 в реальном времени с AllMySat

Download on the App Store